Regional Weather Roundup
Issued by NWS Columbia, SC

Home | Current Version | Previous Version | Text Only | Print | Product List | Glossary On
Versions: 1 2 3 4 5 6 7 8 9 10 11 12 13 14 15 16 17 18 19 20 21 22 23 24 25 26 27 28 29 30 31 32 33 34 35 36 37 38 39 40 41 42 43 44 45 46 47 48 49 50
000
ASUS42 KCAE 060110
RWRCAE
REGIONAL WEATHER ROUNDUP
NATIONAL WEATHER SERVICE COLUMBIA SC
800 PM EST FRI FEB 05 2016

NOTE: "FAIR" INDICATES FEW OR NO CLOUDS BELOW 12,000 FEET WITH NO
SIGNIFICANT WEATHER AND/OR OBSTRUCTIONS TO VISIBILITY.

NOT ALL STATIONS ARE QUALITY CONTROLLED BY THE NATIONAL
WEATHER SERVICE. USE DATA WITH CAUTION...ESPECIALLY
DEWPOINT OBSERVATIONS.

SCZ001>056-GAZ040-063>065-077-060200-
...UPSTATE SOUTH CAROLINA...

CITY           SKY/WX    TMP DP  RH WIND       PRES   REMARKS
ANDERSON       CLEAR     38  20  48 CALM      30.36R
LIBERTY        CLEAR     40  13  34 E7        30.34S WCI  35
SPARTANBURG    CLEAR     41  14  33 NW5       30.36S
CLEMSON        CLEAR     44  14  29 E6        30.36R
GREENVILLE     CLEAR     39  15  37 N6        30.36R WCI  35
GREENWOOD      CLEAR     36  23  59 CALM      30.39R
GREER          CLEAR     40  16  37 N5        30.35R
ROCK HILL      CLEAR     37  20  50 CALM      30.38R
LAURENS        CLEAR     36  23  60 CALM      30.37S


...CENTRAL SOUTH CAROLINA...

CITY           SKY/WX    TMP DP  RH WIND       PRES   REMARKS
COLUMBIA APT   CLEAR     38  27  64 CALM      30.38R
COLUMBIA OWENS CLEAR     40  27  59 CALM      30.40R
MCENTIRE ANGB  CLEAR     37  28  70 CALM      30.39R
ORANGEBURG     CLEAR     40  28  62 CALM      30.38R
SUMTER SHAW    CLEAR     39  24  55 NE3       30.36R
NEWBERRY       CLEAR     36  23  60 CALM      30.41R
AIKEN          FAIR      36  23  60 CALM      30.41R
BARNWELL       FAIR      39  30  70 CALM      30.38S
MANNING        FAIR      34  30  86 CALM      30.38S
CAMDEN         FAIR      37  37 100 CALM      30.39R
LANCASTER      CLEAR     37  16  41 CALM      30.38R
WINNSBORO      CLEAR     37  25  60 N3        30.37R


...EASTERN AND COASTAL SOUTH CAROLINA...

CITY           SKY/WX    TMP DP  RH WIND       PRES   REMARKS
N MYRTLE BCH   CLEAR     39  33  79 CALM      30.37R
CONWAY         FAIR      36  32  87 CALM      30.38R
MARION         FAIR      37  32  81 CALM      30.39R
HARTSVILLE     FAIR      37  23  56 CALM      30.38R
FLORENCE       CLEAR     40  26  57 N5        30.38R
DARLINGTON     CLEAR     37  27  65 N5        30.39R WCI  34
CHARLESTON APT PTCLDY    42  28  57 NW5       30.38R
MOUNT PLEASANT FAIR      41  36  81 CALM      30.38R
WALTERBORO     PTCLDY    39  32  75 CALM      30.39R
BEAUFORT       PTCLDY    44  29  55 NE5       30.38R


...EASTERN GEORGIA...

CITY           SKY/WX    TMP DP  RH WIND       PRES   REMARKS
AUGUSTA BUSH F CLEAR     36  27  69 CALM      30.38R
AUGUSTA DANIEL CLEAR     46  21  37 NE6       30.38R
THOMSON        CLEAR     38  33  81 CALM      30.42S
WASHINGTON     FAIR      41  32  70 CALM      30.36S
CLAXTON        FAIR      40  38  90 CALM      30.37R
SYLVANIA       CLEAR     40  35  83 CALM      30.37S
STATESBORO     CLEAR     41  39  95 CALM      30.37R
SAVANNAH       CLEAR     42  28  57 N6        30.37R


...SOUTHERN NORTH CAROLINA...

CITY           SKY/WX    TMP DP  RH WIND       PRES   REMARKS
CHARLOTTE      PTCLDY    38  14  37 NE3       30.37R
MONROE         CLEAR     38  18  44 CALM      30.36R
WADESBORO      CLEAR     34  28  77 CALM      30.38R
ROCKINGHAM     CLEAR     38  22  54 CALM      30.37S
RUTHERFORDTON  CLEAR     38  12  33 CALM      30.37S
ASHEVILLE      CLEAR     33  13  43 N10       30.34S WCI  25

$$



USA.gov is the U.S. government's official web portal to all federal, state and local government web resources and services.